Weather History for Cozumel, Mexico

Change the Weather History Date:

Friday, March 2, 2012

  Actual Average Record
Temperature  
Mean Temperature 75 °F -  
Max Temperature 82 °F 83 °F 87 °F (2003)
Min Temperature 68 °F 71 °F 57 °F (1998)
Cooling Degree Days 10    
Growing Degree Days 25 (Base 50)    
Moisture  
Dew Point 68 °F    
Average Humidity 79    
Maximum Humidity 100    
Minimum Humidity 62    
Precipitation  
Precipitation 0.00 in - - ()
Sea Level Pressure  
Sea Level Pressure 29.93 in    
Wind  
Wind Speed 7 mph ()    
Max Wind Speed 15 mph    
Max Gust Speed 17 mph    
Visibility 7.5 miles    
Events      
Averages and records for this station are not official NWS values.
T = Trace of Precipitation, MM = Missing Value Source: Averaged Metar Reports

Daily Weather History Graph

Daily Weather History Graph

Search for Another Location

Airport:

Trip Planner

Search our weather history database for the weather conditions in past years. The results will help you decide how hot, cold, wet, or windy it might be!

Date:

Astronomy

Mar. 02, 2012 Rise Set
Actual Time 6:06 AM CST 5:53 PM CST
Civil Twilight 5:44 AM CST 6:15 PM CST
Nautical Twilight 5:18 AM CST 6:40 PM CST
Astronomical Twilight 4:53 AM CST 7:06 PM CST
Moon 12:38 PM CST (3/2) 1:22 AM CST (3/2)
Length of Visible Light 12h 30m
Length of Day
11h 46m
Waxing Gibbous, 66% of the Moon is Illuminated
Mar 2
Waxing Gibbous
Mar 8
Full
Mar 14
Last Quarter
Mar 22
New
Mar 30
First Quarter

Hourly Weather History & Observations

Time (CST) Temp. Heat Index Dew Point Humidity Pressure Visibility Wind Dir Wind Speed Gust Speed Precip Events Conditions
12:46 AM 68.0 °F - 68.0 °F 100% 29.94 in 7.0 mi ESE 4.6 mph - N/A   Clear
1:41 AM 69.8 °F - 68.0 °F 94% 29.93 in 7.0 mi SE 4.6 mph - N/A   Partly Cloudy
2:40 AM 69.8 °F - 68.0 °F 94% 29.95 in 7.0 mi SE 5.8 mph - N/A   Partly Cloudy
3:40 AM 69.8 °F - 66.2 °F 88% 29.92 in 7.0 mi ESE 4.6 mph - N/A   Partly Cloudy
4:41 AM 68.0 °F - 66.2 °F 94% 29.92 in 7.0 mi ESE 4.6 mph - N/A   Clear
5:44 AM 68.0 °F - 66.2 °F 94% 29.91 in 7.0 mi East 3.5 mph - N/A   Partly Cloudy
6:42 AM 68.0 °F - 66.2 °F 94% 29.95 in 7.0 mi Calm Calm - N/A   Partly Cloudy
7:46 AM 75.2 °F - 68.0 °F 78% 29.97 in 8.0 mi SE 6.9 mph - N/A   Scattered Clouds
8:50 AM 78.8 °F - 68.0 °F 69% 30.02 in 8.0 mi SE 10.4 mph - N/A   Scattered Clouds
9:47 AM 80.6 °F 83.2 °F 68.0 °F 65% 30.00 in 8.0 mi SE 9.2 mph - N/A   Scattered Clouds
10:48 AM 80.6 °F 83.2 °F 68.0 °F 65% 29.99 in 8.0 mi ESE 13.8 mph - N/A   Mostly Cloudy
11:49 AM 80.6 °F 83.2 °F 68.0 °F 65% 29.94 in 8.0 mi SE 11.5 mph - N/A   Mostly Cloudy
12:51 PM 78.8 °F - 69.8 °F 74% 29.96 in 8.0 mi ESE 15.0 mph - N/A   Mostly Cloudy
1:40 PM 82.4 °F 85.4 °F 68.0 °F 62% 29.92 in 8.0 mi SSE 13.8 mph - N/A   Scattered Clouds
2:45 PM 82.4 °F 85.4 °F 68.0 °F 62% 29.92 in 8.0 mi SE 13.8 mph - N/A   Scattered Clouds
3:42 PM 78.8 °F - 68.0 °F 69% 29.89 in 8.0 mi SE 13.8 mph - N/A   Scattered Clouds
4:44 PM 77.0 °F - 68.0 °F 74% 29.89 in 8.0 mi SE 11.5 mph - N/A   Scattered Clouds
5:42 PM 75.2 °F - 68.0 °F 78% 29.87 in 8.0 mi SSE 9.2 mph - N/A   Partly Cloudy
6:50 PM 73.4 °F - 68.0 °F 83% 29.90 in 7.0 mi SE 5.8 mph - N/A   Partly Cloudy
7:49 PM 73.4 °F - 68.0 °F 83% 29.91 in 7.0 mi SE 6.9 mph - N/A   Scattered Clouds
8:41 PM 73.4 °F - 68.0 °F 83% 29.87 in 7.0 mi SE 8.1 mph - N/A   Scattered Clouds
9:40 PM 73.4 °F - 68.0 °F 83% 29.92 in 7.0 mi SE 8.1 mph - N/A   Scattered Clouds
10:40 PM 73.4 °F - 66.2 °F 78% 29.91 in 7.0 mi SE 5.8 mph 17.3 mph N/A   Scattered Clouds
11:40 PM 73.4 °F - 66.2 °F 78% 29.86 in 7.0 mi SE 13.8 mph - N/A   Scattered Clouds